This demonstration page uses our WeatherBlox Daily Observations layout. Learn more.

Left ArrowRight Arrow

Hourly Observations for September 1, 2019

Temp ( °F °C ) Dew Point ( °F °C ) Humidity (%) Winds ( mph kmh ) Pressure ( in mb ) Visibility ( mi km ) Precip ( " mm )
12:53 am 00:53 Clear 63 17.2 59 15 87 87 SSE 6 9 30.14 1021 10 16 0.00 0.00
1:53 am 01:53 Mostly Cloudy 62 16.7 58 14.4 86 86 SE 5 7 30.14 1021 10 16 0.00 0.00
2:53 am 02:53 Cloudy 62 16.7 58 14.4 86 86 SSE 6 9 30.13 1020 10 16 0.00 0.00
3:53 am 03:53 Mostly Cloudy 62 16.7 59 15 90 90 S 6 9 30.12 1020 10 16 0.00 0.00
4:53 am 04:53 Clear 61 16.1 59 15 93 93 S 6 9 30.10 1019 8 13 0.00 0.00
5:06 am 05:06 Partly Cloudy 61 16.1 59 15 93 93 S 6 9 30.09 1019 7 11 0.00 0.00
5:15 am 05:15 Mostly Cloudy with Mist and Fog 61 16.1 59 15 93 93 S 6 9 30.09 1019 6 10 0.00 0.00
5:28 am 05:28 Cloudy with Mist and Fog 61 16.1 59 15 93 93 S 7 11 30.09 1019 2 3 0.00 0.00
5:38 am 05:38 Cloudy with Fog 61 16.1 60 15.6 97 97 S 6 9 30.10 1019 1 1 0.00 0.00
5:53 am 05:53 Mostly Cloudy with Fog 61 16.1 59 15 93 93 S 6 9 30.11 1020 0 0 0.00 0.00
6:53 am 06:53 Mostly Cloudy with Fog 61 16.1 60 15.6 97 97 SSE 5 7 30.11 1020 0 0 0.00 0.00
7:53 am 07:53 Mostly Cloudy with Fog 62 16.7 61 16.1 96 96 S 5 7 30.13 1020 0 0 0.00 0.00
8:28 am 08:28 Cloudy with Mist and Fog 63 17.2 62 16.7 97 97 S 5 7 30.12 1020 1 2 0.00 0.00
8:53 am 08:53 Cloudy with Mist and Fog 63 17.2 62 16.7 97 97 S 7 11 30.13 1020 2 3 0.00 0.00
9:18 am 09:18 Cloudy with Mist and Fog 64 17.8 63 17.2 96 96 S 7 11 30.10 1019 3 5 0.00 0.00
9:53 am 09:53 Cloudy with Mist and Fog 65 18.3 63 17.2 93 93 S 9 15 30.12 1020 5 8 0.00 0.00
10:53 am 10:53 Cloudy 69 20.6 65 18.3 87 87 S 7 11 30.11 1020 9 14 0.00 0.00
11:07 am 11:07 Cloudy 70 21.1 65 18.3 84 84 SW 9 15 30.08 1019 10 16 0.00 0.00
11:53 am 11:53 Cloudy 72 22.2 66 18.9 82 82 SSW 8 13 30.10 1019 10 16 0.00 0.00
12:13 pm 12:13 Cloudy 73 22.8 67 19.4 81 81 SSW 7 11 30.05 1017 10 16 0.00 0.00
12:53 pm 12:53 Mostly Cloudy 75 23.9 67 19.4 76 76 SSE 8 13 30.08 1019 10 16 0.00 0.00
1:10 pm 13:10 Partly Cloudy 76 24.4 68 20 77 77 SSW 6 9 30.02 1016 10 16 0.00 0.00
1:53 pm 13:53 Mostly Sunny 78 25.6 68 20 71 71 SSW 9 15 30.07 1018 10 16 0.00 0.00
2:53 pm 14:53 Partly Cloudy 82 27.8 68 20 63 63 S 10 17 30.05 1018 10 16 0.00 0.00
3:53 pm 15:53 Mostly Sunny 82 27.8 68 20 63 63 SSW 13 20 30.02 1017 10 16 0.00 0.00
4:53 pm 16:53 Mostly Sunny 81 27.2 67 19.4 62 62 S 15 24 30.01 1016 10 16 0.00 0.00
5:53 pm 17:53 Mostly Sunny 82 27.8 67 19.4 60 60 S 13 20 30.01 1016 10 16 0.00 0.00
6:53 pm 18:53 Sunny 81 27.2 67 19.4 62 62 SSE 13 20 30.01 1016 10 16 0.00 0.00
7:53 pm 19:53 Sunny 78 25.6 68 20 71 71 SSE 8 13 30.02 1017 10 16 0.00 0.00
8:53 pm 20:53 Clear 76 24.4 68 20 77 77 SSE 6 9 30.03 1017 10 16 0.00 0.00
9:53 pm 21:53 Clear 74 23.3 68 20 82 82 SE 6 9 30.04 1017 10 16 0.00 0.00
10:53 pm 22:53 Clear 73 22.8 67 19.4 81 81 SSE 9 15 30.04 1017 10 16 0.00 0.00
11:53 pm 23:53 Cloudy 72 22.2 67 19.4 84 84 SSE 6 9 30.06 1018 10 16 0.00 0.00

Powered by AerisWeather